Time[GMT],air_temperature[C](-3m),wind_speed[m/s](-4m),wind_gust[m/s](-4m),visibility[m](-3m),barometric_pressure[millibars](-3m),wind_2_direction[degrees_true](-4m),wind_2_gust[m/s](-4m),wind_2_gust_1s[m/s](-4m),wind_2_min[m/s](-4m),wind_2_percent_good[1](-4m),wind_2_speed[m/s](-4m),wind_direction[degrees_true](-4m),wind_gust_1s[m/s](-4m),wind_min[m/s](-4m)
2007-09-18 01:00,10.9,,,2948,1030.78,239.80,0.87,1.16,0.26,1.00,0.64,,0.00,0.00
2007-09-18 02:00,11.1,,,2957,1030.53,306.70,1.56,2.08,0.45,1.00,1.22,,0.78,0.00
2007-09-18 03:00,11.5,,,2958,1030.47,325.40,2.88,3.20,1.26,1.00,2.29,,2.55,0.78
2007-09-18 04:00,,,,,,329.30,2.92,3.12,1.36,1.00,2.44,,,
2007-09-18 05:00,10.9,,,2962,1030.35,359.26,1.08,1.39,0.34,1.00,0.87,,0.00,0.00
2007-09-18 06:00,10.6,,,2959,1030.16,16.19,1.35,1.57,0.70,1.00,1.09,,0.39,0.00
2007-09-18 07:00,10.9,,,2965,1029.92,16.31,3.26,3.43,2.19,1.00,2.78,,2.94,1.57
2007-09-18 08:00,10.8,,,2954,1030.23,32.58,2.62,2.83,1.72,1.00,2.20,,2.16,1.18
2007-09-18 09:00,10.8,,,2965,1030.41,30.12,3.10,3.22,2.22,1.00,2.75,,2.74,1.76
2007-09-18 10:00,10.5,,,2963,1030.90,25.01,4.01,4.14,2.66,1.00,3.41,,3.72,2.16
2007-09-18 11:00,10.9,,,2957,1031.15,45.69,4.07,4.32,2.80,1.00,3.53,,3.92,2.55
2007-09-18 12:00,10.9,,,2946,1031.15,54.10,4.56,4.71,2.64,1.00,3.62,,4.31,2.55
2007-09-18 13:00,10.9,,,2948,1031.03,62.50,3.43,3.71,2.26,1.00,2.98,,3.14,1.76
2007-09-18 14:00,10.9,,,2960,1031.03,57.80,3.97,4.31,2.21,1.00,3.46,,3.92,2.16
2007-09-18 15:00,11.1,,,2943,1031.46,47.11,3.30,3.63,1.87,1.00,2.68,,2.94,1.37
2007-09-18 16:00,11.3,,,2948,1031.33,64.50,2.71,3.04,1.47,1.00,2.22,,2.55,0.98
2007-09-18 17:00,11.4,,,2949,1030.90,64.20,2.01,2.32,0.97,1.00,1.61,,1.18,0.00
2007-09-18 18:00,11.7,,,2947,1030.78,14.07,2.40,2.66,0.95,1.00,1.76,,1.96,0.20
2007-09-18 19:00,12.3,,,2960,1030.35,64.10,1.00,1.39,0.32,1.00,0.79,,0.00,0.00
2007-09-18 20:00,13.0,,,2959,1029.92,73.00,1.10,1.34,0.01,1.00,0.37,,0.00,0.00
2007-09-18 21:00,16.5,,,2965,1029.24,153.30,0.69,1.30,0.02,1.00,0.43,,0.00,0.00
2007-09-18 22:00,14.2,,,2953,1028.93,214.90,0.85,1.30,0.20,1.00,0.71,,0.00,0.00
2007-09-18 23:00,11.5,,,2939,1028.93,224.80,1.36,1.91,0.67,1.00,1.15,,0.20,0.00
2007-09-19 00:00,11.2,,,2948,1028.93,297.40,1.79,2.40,0.40,1.00,1.32,,1.76,0.00
2007-09-19 01:00,11.2,,,2960,1029.12,302.20,2.27,2.97,0.71,1.00,1.85,,1.96,0.39
2007-09-19 02:00,11.3,,,2949,1029.18,217.20,1.55,1.91,0.77,1.00,1.38,,0.78,0.00
2007-09-19 03:00,11.2,,,2938,1028.99,233.80,1.11,1.56,0.33,1.00,0.88,,0.20,0.00
2007-09-19 04:00,11.0,,,2932,1028.62,194.60,1.80,2.14,0.95,1.00,1.50,,0.98,0.20
2007-09-19 05:00,10.8,,,2939,1028.19,200.40,1.27,1.60,0.49,1.00,1.00,,0.00,0.00
2007-09-19 06:00,10.8,,,2936,1027.64,191.60,0.96,1.33,0.22,1.00,0.74,,0.00,0.00
2007-09-19 08:00,10.6,,,2931,1026.90,195.50,1.06,1.51,0.22,1.00,0.77,,0.00,0.00
2007-09-19 09:00,10.7,,,2947,1026.96,274.60,1.55,2.78,0.23,1.00,1.05,,0.98,0.00
2007-09-19 10:00,10.8,,,2949,1027.15,321.80,1.97,3.03,0.31,1.00,1.52,,1.96,0.00
2007-09-19 11:00,11.0,,,2822,1027.51,12.05,1.79,2.40,0.54,1.00,1.33,,1.37,0.00
2007-09-19 12:00,11.2,,,2927,1027.58,12.97,1.21,1.92,0.22,1.00,0.87,,0.39,0.00
2007-09-19 13:00,11.5,,,2945,1027.45,57.20,1.00,1.32,0.05,1.00,0.65,,0.00,0.00
2007-09-19 14:00,11.7,,,2939,1027.21,151.60,1.74,2.44,0.32,1.00,1.39,,1.37,0.00
2007-09-19 15:00,12.2,,,2946,1026.90,185.90,1.91,2.74,0.53,1.00,1.52,,1.57,0.00
2007-09-19 16:00,12.4,,,2961,1026.59,170.60,2.30,2.85,1.01,1.00,1.92,,1.96,0.78
2007-09-19 17:00,12.6,,,2953,1025.85,207.10,2.98,3.12,1.73,1.00,2.43,,2.35,1.18
2007-09-19 18:00,12.8,,,2956,1025.30,207.60,2.99,3.44,1.81,1.00,2.62,,2.74,1.37
2007-09-19 19:00,13.1,,,2951,1024.68,224.50,2.33,2.80,1.43,1.00,2.02,,1.76,0.98
2007-09-19 20:00,12.9,,,2933,1023.95,228.10,2.68,3.08,1.33,1.00,2.19,,2.16,0.78
2007-09-19 21:00,12.6,,,2915,1023.70,215.60,3.27,3.75,1.72,1.00,2.59,,2.94,1.37
2007-09-19 22:00,12.4,,,2945,1023.52,211.30,2.94,3.31,1.60,1.00,2.49,,2.74,1.37
2007-09-19 23:00,12.5,,,2927,1023.45,205.20,3.07,3.51,1.65,1.00,2.39,,2.55,1.37
2007-09-20 00:00,12.6,,,2906,1023.21,208.60,4.23,4.68,2.62,1.00,3.65,,3.92,2.16
2007-09-20 01:00,12.6,,,2324,1023.27,207.60,3.90,4.23,2.18,1.00,3.32,,3.53,1.76
2007-09-20 02:00,12.2,,,2434,1023.15,225.30,2.83,3.21,0.87,1.00,2.11,,2.16,0.59
2007-09-20 03:00,12.1,,,1977,1022.72,213.30,3.59,4.13,1.83,1.00,2.89,,3.33,1.76
2007-09-20 04:00,12.0,,,1239,1022.35,234.40,3.05,3.72,1.55,1.00,2.54,,2.74,1.57
2007-09-20 05:00,12.2,,,2653,1021.98,227.60,4.05,4.53,2.37,1.00,3.37,,3.92,2.35
2007-09-20 06:00,12.4,,,2914,1021.43,220.10,4.88,5.40,2.56,1.00,3.96,,4.70,2.74
2007-09-20 07:00,12.9,,,2939,1020.99,238.00,7.12,8.40,3.01,1.00,5.08,,7.84,3.14
2007-09-20 08:00,12.9,,,2925,1020.69,228.30,7.83,8.79,3.92,1.00,5.94,,7.84,4.12
2007-09-20 09:00,12.8,,,2882,1020.20,241.70,6.72,7.95,2.69,1.00,4.51,,7.06,2.94
2007-09-20 10:00,12.7,,,2787,1020.63,240.90,6.60,7.74,2.82,1.00,5.13,,7.25,2.74
2007-09-20 11:00,12.4,,,2027,1020.50,240.60,5.76,6.74,2.83,1.00,4.79,,6.27,2.74
2007-09-20 12:00,12.4,,,2087,1020.69,246.10,7.60,8.34,4.57,1.00,6.50,,8.04,4.31
2007-09-20 13:00,12.4,,,2654,1020.81,234.80,6.57,7.75,3.61,1.00,5.59,,7.25,3.14
2007-09-20 14:00,12.6,,,2493,1020.81,230.20,6.21,6.91,3.39,1.00,4.99,,6.27,3.14
2007-09-20 15:00,12.6,,,2413,1020.63,233.20,5.92,6.59,2.97,1.00,4.78,,5.88,3.14
2007-09-20 16:00,12.7,,,2351,1020.20,228.50,4.67,5.61,2.43,1.00,3.95,,4.90,2.55
2007-09-20 17:00,12.8,,,2373,1019.89,231.60,5.09,5.98,2.85,1.00,4.27,,5.29,2.55
2007-09-20 18:00,12.9,,,2363,1019.15,230.30,5.01,5.79,2.90,1.00,4.37,,5.29,2.94
2007-09-20 19:00,12.9,,,2325,1019.03,236.60,6.20,7.28,2.51,1.00,4.62,,6.47,2.74
2007-09-20 20:00,12.9,,,2216,1018.60,231.20,5.45,5.93,2.57,1.00,4.47,,5.88,2.74
2007-09-20 21:00,12.8,,,1707,1018.54,228.70,3.91,4.59,2.11,1.00,3.30,,3.72,1.96
2007-09-20 22:00,12.7,,, 976,1018.60,220.20,3.44,3.98,1.80,1.00,2.88,,3.14,1.18
2007-09-20 23:00,12.6,,,2251,1018.85,230.90,4.22,4.97,2.33,1.00,3.66,,4.12,2.35
2007-09-21 00:00,11.7,,, 284,1019.58,220.20,3.91,4.40,1.82,1.00,3.31,,3.53,1.76
2007-09-21 01:00,11.9,,, 734,1019.89,216.30,3.10,3.82,1.38,1.00,2.72,,2.74,1.18
2007-09-21 02:00,12.0,,,2167,1019.89,236.50,3.07,3.47,1.33,1.00,2.37,,2.55,1.18
2007-09-21 03:00,12.1,,,2408,1020.01,241.90,2.13,2.72,0.95,1.00,1.78,,1.57,0.39
2007-09-21 04:00,12.3,,,2323,1020.20,239.50,2.44,2.91,0.75,1.00,1.91,,2.16,0.20
2007-09-21 05:00,12.4,,,2409,1020.56,254.30,2.75,3.22,1.52,1.00,2.34,,2.55,0.98
2007-09-21 06:00,12.3,,,2325,1020.38,82.20,1.75,2.13,0.37,1.00,1.28,,1.18,0.00
2007-09-21 07:00,11.9,,,2286,1020.26,117.50,1.13,1.45,0.09,1.00,0.76,,0.20,0.00
2007-09-21 08:00,12.1,,,2461,1020.56,120.70,1.33,1.72,0.08,1.00,0.84,,0.39,0.00
2007-09-21 09:00,12.7,,,2462,1020.81,30.05,5.59,6.13,2.68,1.00,4.13,,6.27,2.94
2007-09-21 10:00,12.1,,,2394,1021.67,46.65,6.74,7.43,3.88,1.00,5.43,,6.86,3.92
2007-09-21 11:00,10.6,,, 812,1022.22,62.20,6.68,7.41,3.85,1.00,5.92,,7.25,4.12
2007-09-21 12:00,10.6,,, 173,1022.72,70.80,5.97,6.78,3.78,1.00,5.42,,6.27,3.53
2007-09-21 13:00,10.9,,, 154,1022.96,76.10,5.73,5.95,3.27,1.00,4.77,,5.29,3.14
2007-09-21 14:00,10.8,,, 290,1023.52,75.80,5.39,6.00,3.01,1.00,4.72,,5.49,2.74
2007-09-21 15:00,11.2,,, 433,1023.64,84.40,4.00,5.01,1.82,1.00,3.30,,4.12,1.96
2007-09-21 16:00,11.2,,, 386,1023.45,53.90,3.70,4.32,1.92,1.00,3.36,,3.72,1.96
2007-09-21 17:00,11.1,,, 305,1023.02,59.20,3.20,3.72,1.91,1.00,2.81,,3.33,1.76
2007-09-21 18:00,11.1,,, 202,1022.59,62.50,3.30,3.81,1.46,1.00,2.71,,3.14,1.18
2007-09-21 19:00,11.2,,, 202,1022.16,56.40,2.48,3.08,1.26,1.00,2.05,,2.16,0.78
2007-09-21 20:00,11.3,,, 330,1021.67,60.20,2.47,2.85,1.14,1.00,1.91,,1.76,0.39
2007-09-21 21:00,12.4,,, 262,1021.49,171.60,2.89,3.32,0.98,1.00,2.12,,2.55,0.59
2007-09-21 22:00,12.4,,, 144,1021.61,171.30,2.67,3.03,0.93,1.00,1.98,,2.35,0.59
2007-09-21 23:00,12.3,,, 167,1021.67,189.00,1.74,2.17,0.53,1.00,1.45,,1.18,0.00
2007-09-22 00:00,12.2,,, 245,1021.73,199.70,3.06,3.45,1.39,1.00,2.40,,2.55,0.78
2007-09-22 02:00,11.9,,, 228,1022.10,204.60,3.63,3.87,1.59,1.00,2.72,,2.94,0.78
2007-09-22 03:00,11.9,,, 238,1021.86,189.30,3.00,3.16,0.94,1.00,2.11,,2.55,0.39
2007-09-22 04:00,11.8,,, 213,1021.49,213.80,2.21,2.56,1.04,1.00,1.82,,1.57,0.39
2007-09-22 05:00,11.9,,, 217,1021.30,208.10,2.95,3.17,1.39,1.00,2.30,,2.35,0.78
2007-09-22 06:00,11.9,,, 225,1021.12,196.70,1.31,1.37,0.14,1.00,0.77,,0.00,0.00
2007-09-22 07:00,12.0,,, 316,1020.93,223.40,2.16,2.25,0.84,1.00,1.50,,1.37,0.00
2007-09-22 08:00,12.1,,, 905,1020.99,215.50,3.66,4.01,1.93,1.00,2.86,,3.33,1.37
2007-09-22 09:00,12.0,,, 711,1021.36,216.90,2.32,2.78,1.17,1.00,1.78,,1.96,0.39
2007-09-22 10:00,12.0,,,1389,1021.36,238.60,2.80,3.10,1.42,1.00,2.29,,2.35,1.18
2007-09-22 11:00,11.9,,,1783,1021.12,225.40,3.49,3.70,1.15,1.00,2.04,,3.33,0.78
2007-09-22 12:00,11.9,,, 433,1020.99,189.60,2.79,3.20,1.17,1.00,2.00,,2.35,0.59
2007-09-22 13:00,12.1,,, 344,1020.87,180.40,2.83,3.33,0.93,1.00,2.13,,2.55,0.78
2007-09-22 14:00,12.5,,, 556,1020.69,161.70,3.10,3.44,1.62,1.00,2.46,,2.74,0.78
2007-09-22 15:00,12.8,,,1147,1020.07,183.50,2.89,3.63,1.58,1.00,2.38,,2.74,1.37
2007-09-22 16:00,12.8,,, 299,1019.77,200.00,2.73,3.21,1.38,1.00,2.24,,2.16,1.18
2007-09-22 17:00,12.9,,,1478,1019.21,211.30,3.31,3.80,1.71,1.00,2.82,,3.14,1.57
2007-09-22 18:00,12.8,,,1784,1018.66,198.90,3.54,4.23,1.95,1.00,3.02,,3.33,1.37
2007-09-22 19:00,13.0,,,1931,1017.62,177.10,3.64,4.31,1.56,1.00,3.06,,3.53,1.76
2007-09-22 20:00,13.2,,,1943,1017.13,189.70,4.64,5.35,2.51,1.00,3.72,,4.90,2.55
2007-09-22 21:00,13.5,,,2134,1016.10,177.80,5.62,6.15,3.09,1.00,4.58,,5.88,2.94
2007-09-22 22:00,13.7,,,2229,1015.86,196.40,6.48,7.13,3.65,1.00,5.63,,6.66,3.72
2007-09-22 23:00,13.7,,,2106,1015.49,194.70,6.90,7.62,4.00,1.00,5.67,,7.45,3.92
2007-09-23 00:00,13.8,,,1890,1015.98,207.30,7.56,8.02,4.14,1.00,6.22,,7.84,4.31
2007-09-23 01:00,13.6,,, 854,1015.18,193.50,6.72,8.09,3.79,1.00,5.86,,7.25,4.12
2007-09-23 02:00,13.6,,, 182,1014.88,194.10,7.47,8.11,4.36,1.00,6.04,,7.64,4.51
2007-09-23 03:00,13.9,,,1532,1014.39,195.80,8.09,8.62,3.65,1.00,6.22,,8.23,4.12
2007-09-23 04:00,13.6,,, 262,1014.02,204.10,7.70,8.53,3.88,1.00,6.63,,8.62,4.12
2007-09-23 05:00,13.4,,, 338,1013.83,208.00,5.85,6.74,2.73,1.00,4.82,,6.27,2.55
2007-09-23 06:00,12.7,,, 194,1014.02,298.70,2.10,3.30,0.06,1.00,1.55,,1.76,0.00
2007-09-23 07:00,12.8,,, 167,1013.47,226.00,3.07,3.85,1.12,1.00,2.66,,2.94,1.37
2007-09-23 08:00,12.8,,, 226,1013.47,225.70,3.12,3.75,0.86,1.00,2.30,,2.94,0.39
2007-09-23 09:00,13.0,,, 258,1013.77,246.30,3.43,3.95,0.79,1.00,2.58,,3.14,0.39
2007-09-23 10:00,12.5,,, 157,1014.08,256.10,3.23,4.36,1.76,1.00,2.93,,3.33,1.76
2007-09-23 11:00,12.4,,, 185,1014.57,265.20,4.15,4.88,2.34,1.00,3.54,,4.12,1.96
2007-09-23 12:00,12.3,,, 222,1014.82,258.60,1.84,2.36,0.33,1.00,1.40,,1.18,0.00
2007-09-23 13:00,13.2,,,1916,1015.37,278.40,3.75,4.41,2.19,1.00,3.27,,3.72,1.96
2007-09-23 14:00,13.8,,,2945,1015.49,302.00,3.97,4.40,1.88,1.00,3.05,,3.72,1.96
2007-09-23 15:00,14.2,,,2941,1015.31,300.20,3.28,4.06,1.75,1.00,2.76,,3.14,1.57
2007-09-23 16:00,14.8,,,2954,1015.18,275.90,5.50,5.88,3.08,1.00,4.25,,5.68,2.74
2007-09-23 17:00,14.8,,,2959,1014.69,249.50,5.58,6.43,3.16,1.00,4.64,,6.08,3.14
2007-09-23 18:00,14.7,,,2955,1014.14,241.30,7.33,8.29,3.70,1.00,5.79,,7.64,4.12
2007-09-23 19:00,14.3,,,2921,1013.77,231.50,7.10,8.12,4.29,1.00,6.17,,7.84,4.31
2007-09-23 20:00,14.6,,,2819,1013.47,236.70,7.75,8.66,4.31,1.00,6.78,,8.62,4.70
2007-09-23 22:00,14.2,,,2518,1013.16,249.00,8.07,8.75,4.05,1.00,6.84,,8.62,4.12
2007-09-23 23:00,15.1,,,2947,1013.96,270.20,8.18,9.07,4.23,1.00,6.40,,9.02,3.92
2007-09-24 00:00,16.4,,,2965,1014.75,282.40,5.20,5.28,1.24,1.00,3.18,,4.70,0.78
2007-09-24 01:00,15.9,,,2965,1015.18,319.80,9.20,9.49,3.98,1.00,6.33,,9.60,4.31
2007-09-24 02:00,15.2,,,2962,1016.10,323.60,5.20,6.35,2.92,1.00,4.50,,5.68,2.94
2007-09-24 03:00,15.3,,,2965,1016.29,323.60,6.91,8.15,4.56,1.00,6.26,,8.04,4.51
2007-09-24 04:00,15.0,,,2964,1016.90,314.70,6.90,8.32,4.35,1.00,5.96,,8.23,4.31
2007-09-24 05:00,14.4,,,2965,1017.15,308.40,5.86,6.86,3.51,1.00,5.24,,6.08,3.33
2007-09-24 06:00,14.6,,,2964,1017.33,309.20,7.60,8.62,4.97,1.00,6.65,,8.62,4.90
2007-09-24 07:00,13.5,,,2965,1018.01,318.50,5.50,6.04,2.68,1.00,4.36,,5.29,2.35
2007-09-24 08:00,13.9,,,2964,1018.19,306.90,6.18,7.14,3.07,1.00,5.23,,6.66,3.53
2007-09-24 10:00,13.4,,,2965,1019.17,301.10,5.78,6.63,2.59,1.00,4.49,,6.08,2.74
2007-09-24 11:00,13.1,,,2585,1019.30,284.50,5.36,5.65,2.49,1.00,3.90,,5.10,2.16
2007-09-24 12:00,13.1,,,2804,1019.42,289.50,5.90,6.61,2.59,1.00,4.31,,6.08,2.55
2007-09-24 13:00,13.5,,,2831,1019.73,293.50,7.64,8.90,3.95,1.00,6.47,,8.82,4.31
2007-09-24 14:00,13.8,,,2901,1019.48,280.00,7.36,8.29,3.90,1.00,6.13,,7.84,4.12
2007-09-24 15:00,13.7,,,2951,1018.93,268.30,5.91,6.77,3.52,1.00,5.26,,6.66,3.53
2007-09-24 16:00,13.6,,,2905,1018.37,241.50,4.66,5.53,2.72,1.00,3.97,,4.90,2.35
2007-09-24 17:00,13.7,,,2942,1017.76,221.70,5.23,5.97,2.75,1.00,4.44,,5.49,2.94
2007-09-24 18:00,14.0,,,2853,1016.84,249.20,8.06,8.74,5.08,1.00,7.08,,8.23,4.90
2007-09-24 20:00,14.5,,,2257,1016.29,248.80,9.09,10.19,4.72,1.00,7.79,,10.19,5.10
2007-09-24 22:00,14.5,,,2082,1016.47,249.60,7.59,8.48,4.79,1.00,6.63,,8.04,4.51
2007-09-25 00:00,13.7,,,2948,1016.90,256.00,5.68,6.56,3.47,1.00,4.86,,6.27,3.33
2007-09-25 01:00,13.7,,,2950,1017.09,260.10,4.17,5.07,2.38,1.00,3.78,,4.31,2.35
2007-09-25 02:00,13.1,,,2937,1016.96,228.30,3.19,3.90,1.62,1.00,2.74,,3.14,1.37
2007-09-25 03:00,12.6,,,2927,1017.09,302.00,2.27,3.23,1.20,1.00,2.01,,2.16,0.59
2007-09-25 04:00,12.8,,,2941,1016.84,259.80,2.95,3.56,1.70,1.00,2.62,,2.74,1.37
2007-09-25 05:00,12.6,,,2925,1016.90,227.90,2.98,3.56,1.16,1.00,2.44,,2.55,0.98
2007-09-25 06:00,12.7,,,2945,1016.41,225.20,1.97,2.67,0.95,1.00,1.72,,1.37,0.20
2007-09-25 07:00,12.9,,,2928,1016.10,223.00,3.54,3.97,0.98,1.00,2.32,,3.14,0.20
2007-09-25 08:00,12.7,,,2911,1016.16,223.30,2.14,2.74,0.53,1.00,1.66,,1.76,0.20
2007-09-25 09:00,12.8,,,2912,1016.29,259.50,3.31,3.70,1.73,1.00,2.70,,3.14,1.57
2007-09-25 10:00,13.0,,,2924,1016.23,248.20,3.37,3.87,1.70,1.00,2.69,,2.94,1.57
2007-09-25 11:00,12.9,,,2930,1016.23,225.00,4.65,5.16,2.37,1.00,3.69,,4.51,2.16
2007-09-25 12:00,13.3,,,2962,1015.74,233.30,5.19,5.69,3.13,1.00,4.46,,5.49,2.94
2007-09-25 13:00,13.6,,,2952,1015.43,235.70,5.90,6.43,3.58,1.00,4.79,,5.68,3.53
2007-09-25 14:00,13.7,,,2951,1015.24,251.90,4.85,5.46,2.88,1.00,4.19,,4.90,2.94
2007-09-25 15:00,13.5,,,2947,1014.82,233.10,4.39,4.94,2.72,1.00,3.75,,4.31,2.74
2007-09-25 16:00,13.7,,,2918,1014.32,243.30,5.34,5.83,3.25,1.00,4.61,,5.49,3.33
2007-09-25 17:00,13.8,,,2960,1013.90,224.30,4.70,5.41,2.96,1.00,4.01,,5.10,2.94
2007-09-25 19:00,14.1,,,2882,1012.55,219.60,6.34,7.29,3.62,1.00,5.24,,7.25,3.92
2007-09-25 20:00,14.2,,,2883,1011.93,220.30,6.50,7.28,3.13,1.00,5.38,,7.25,3.14
2007-09-25 21:00,14.0,,,2256,1012.00,223.90,4.78,5.43,1.70,1.00,3.35,,4.51,1.76
2007-09-25 23:00,14.5,,,2862,1010.89,223.00,7.41,8.19,4.31,1.00,6.49,,8.23,4.70
2007-09-26 00:00,14.2,,,2885,1010.89,227.30,6.86,7.67,3.87,1.00,5.72,,7.25,4.12
2007-09-26 01:00,14.3,,,2839,1010.95,232.10,5.50,6.19,2.48,1.00,4.58,,5.68,2.94
2007-09-26 02:00,13.9,,,2772,1011.08,229.20,3.97,4.85,2.13,1.00,3.42,,4.12,1.96
2007-09-26 03:00,14.9,,,2805,1010.89,233.30,5.78,6.55,2.93,1.00,4.47,,6.08,2.74
2007-09-26 04:00,14.3,,,2748,1010.59,236.30,4.76,5.63,2.27,1.00,3.78,,4.90,2.35
2007-09-26 05:00,14.8,,,2736,1010.71,236.60,7.40,8.17,3.72,1.00,5.76,,7.45,4.12
2007-09-26 06:00,14.2,,,2644,1010.83,234.50,6.83,7.74,3.40,1.00,5.61,,7.25,3.92
2007-09-26 07:00,15.3,,,2714,1010.83,252.00,7.44,8.50,4.14,1.00,6.42,,8.62,4.12
2007-09-26 08:00,15.0,,,2688,1011.02,272.10,4.33,5.26,1.97,1.00,3.59,,4.51,1.76
2007-09-26 09:00,14.9,,,2699,1011.26,252.80,5.56,6.44,3.38,1.00,4.96,,6.08,3.33
2007-09-26 10:00,14.8,,,2669,1011.32,224.70,5.72,6.79,2.61,1.00,4.79,,8.43,3.14
2007-09-26 11:00,14.0,,,2310,1011.44,233.30,3.52,4.42,0.38,1.00,2.23,,3.92,0.20
2007-09-26 12:00,13.9,,,2415,1011.26,218.50,6.31,7.60,3.76,1.00,5.25,,6.66,3.72
2007-09-26 13:00,14.1,,,2369,1011.32,221.00,5.48,6.29,3.11,1.00,4.80,,5.88,3.14
2007-09-26 14:00,14.4,,,2390,1010.89,230.50,5.30,6.26,2.30,1.00,4.21,,5.49,2.16
2007-09-26 15:00,14.5,,,2343,1010.65,233.40,6.04,6.95,3.80,1.00,5.60,,6.86,3.92
2007-09-26 16:00,14.8,,,2259,1010.10,223.60,6.74,7.95,3.45,1.00,5.65,,7.25,3.92
2007-09-26 17:00,14.9,,,2205,1009.61,226.80,8.02,8.99,4.49,1.00,6.63,,8.62,4.90
2007-09-26 18:00,14.7,,,2130,1009.48,227.70,8.24,9.11,4.42,1.00,6.83,,8.82,4.70
2007-09-26 19:00,14.8,,,2138,1009.73,260.40,5.73,6.44,2.37,1.00,4.57,,6.08,2.55
2007-09-26 20:00,14.9,,,2116,1009.61,245.60,5.13,6.04,2.70,1.00,4.24,,5.68,2.74
2007-09-26 22:00,14.5,,,1748,1010.34,243.60,5.51,6.58,2.60,1.00,4.68,,5.88,2.94
2007-09-26 23:00,14.5,,,2148,1010.89,235.20,5.49,6.50,3.03,1.00,4.73,,6.27,3.14
2007-09-27 00:00,14.1,,,2106,1011.75,288.80,2.71,3.62,0.87,1.00,2.22,,2.35,0.59
2007-09-27 01:00,14.5,,,2208,1012.85,255.60,6.03,7.40,3.23,1.00,5.26,,7.25,3.14
2007-09-27 02:00,14.8,,,2265,1012.85,252.40,3.98,5.31,2.05,1.00,3.56,,4.31,2.16
2007-09-27 03:00,14.4,,,2212,1012.91,223.80,2.67,3.33,0.89,1.00,2.04,,2.74,0.59
2007-09-27 04:00,14.6,,,2274,1013.28,275.50,2.62,3.53,1.28,1.00,2.29,,2.55,0.98
2007-09-27 05:00,14.6,,,2267,1014.08,232.00,3.26,3.96,0.95,1.00,2.54,,2.94,0.59
2007-09-27 06:00,13.1,,,2033,1014.63,206.30,2.55,3.60,0.48,1.00,2.06,,2.55,0.39
2007-09-27 07:00,13.5,,,2236,1015.37,228.10,4.34,5.20,2.30,1.00,3.85,,4.31,2.16
2007-09-27 08:00,14.0,,,2391,1015.55,245.00,2.68,3.50,1.17,1.00,2.30,,2.35,0.98
2007-09-27 09:00,13.8,,,2282,1015.49,205.20,1.75,2.74,0.07,1.00,1.29,,1.57,0.00
2007-09-27 10:00,13.6,,,2259,1016.16,170.80,1.94,2.88,0.08,1.00,1.17,,2.16,0.00
2007-09-27 11:00,13.5,,,2265,1016.59,224.20,3.00,3.79,0.60,1.00,2.16,,2.94,0.00
2007-09-27 12:00,14.5,,,1958,1016.35,339.80,2.00,3.17,0.21,1.00,1.55,,1.96,0.00
2007-09-27 13:00,13.6,,,2030,1016.59,86.10,2.36,3.19,0.99,1.00,2.05,,2.16,0.59
2007-09-27 14:00,13.4,,,2054,1016.47,130.90,2.41,3.31,0.78,1.00,1.98,,2.35,0.59
2007-09-27 15:00,13.2,,,2212,1016.23,33.16,3.10,3.91,1.44,1.00,2.65,,3.14,1.18
2007-09-27 16:00,13.2,,, 130,1016.10,78.70,2.33,3.21,1.16,1.00,2.07,,2.35,0.59
2007-09-27 17:00,13.4,,,1064,1015.86,28.80,3.79,4.45,1.97,1.00,3.21,,4.12,1.76
2007-09-27 18:00,12.8,,, 102,1015.24,106.10,4.07,4.50,2.32,1.00,3.30,,3.72,1.96
2007-09-27 19:00,13.1,,,  92,1014.63,128.70,4.83,5.26,3.18,1.00,4.17,,4.51,2.74
2007-09-27 20:00,13.0,,,  87,1014.88,193.50,1.83,2.43,0.20,1.00,1.14,,1.37,0.00
2007-09-27 21:00,13.8,,, 127,1014.57,166.20,1.83,2.19,0.02,1.00,0.69,,1.37,0.00
2007-09-27 22:00,13.4,,, 103,1014.51,104.70,2.04,2.55,0.98,1.00,1.74,,1.57,0.39
2007-09-27 23:00,12.7,,, 109,1014.57,71.80,2.26,3.19,0.84,1.00,1.87,,2.16,0.39
2007-09-28 00:00,12.6,,, 107,1014.57,58.70,2.71,3.39,1.03,1.00,2.34,,2.55,0.78
2007-09-28 01:00,12.9,,, 116,1014.39,73.60,2.06,2.75,0.92,1.00,1.80,,1.76,0.39
2007-09-28 02:00,14.6,,, 140,1013.65,198.30,4.91,5.62,2.44,1.00,3.74,,4.70,2.35
2007-09-28 03:00,13.8,,, 168,1012.91,162.40,3.90,4.20,1.75,1.00,3.01,,3.92,1.76
2007-09-28 04:00,13.6,,, 274,1011.87,174.60,6.59,7.01,3.54,1.00,5.27,,6.47,3.53
2007-09-28 05:00,14.1,,, 341,1011.20,175.80,8.99,10.00,4.17,1.00,7.14,,9.60,4.90
2007-09-28 06:00,13.5,,, 219,1011.44,230.70,3.29,3.93,1.27,1.00,2.50,,3.14,0.78
2007-09-28 07:00,13.5,,, 202,1010.53,166.90,3.99,4.75,2.32,1.00,3.57,,4.31,1.96
2007-09-28 08:00,14.2,,, 350,1009.61,166.10,5.81,7.07,2.95,1.00,4.63,,6.27,2.55
2007-09-28 09:00,14.1,,, 286,1008.20,136.70,2.92,2.96,0.96,1.00,1.90,,2.16,0.39
2007-09-28 10:00,13.6,,, 250,1007.04,50.60,2.35,3.28,0.83,1.00,1.95,,2.35,0.20
2007-09-28 11:00,13.5,,,1018,1006.42,58.60,4.85,5.44,2.42,1.00,3.99,,5.10,2.16
2007-09-28 12:00,13.4,,,2292,1005.08,20.10,3.75,4.63,1.94,1.00,3.22,,4.12,1.76
2007-09-28 13:00,13.2,,, 343,1004.47,17.13,3.80,4.34,1.89,1.00,3.10,,3.72,1.96
2007-09-28 14:00,13.4,,, 260,1004.35,352.21,3.56,4.09,1.54,1.00,3.00,,3.72,1.37
2007-09-28 15:00,13.7,,, 687,1004.90,256.90,2.91,3.28,0.96,1.00,2.25,,2.74,0.78
2007-09-28 16:00,13.6,,, 523,1005.02,221.30,3.88,4.31,2.75,1.00,3.55,,3.92,2.55
2007-09-28 17:00,13.5,,, 375,1005.08,214.60,4.61,4.88,2.56,1.00,3.73,,4.70,2.35
2007-09-28 18:00,13.5,,, 499,1004.83,202.00,4.53,4.98,2.93,1.00,3.95,,4.70,2.74
2007-09-28 19:00,13.4,,, 564,1004.96,197.70,6.81,7.36,3.59,1.00,5.60,,7.45,3.33
2007-09-28 20:00,13.2,,, 664,1005.51,233.70,6.25,7.06,3.69,1.00,5.36,,6.86,3.72
2007-09-28 21:00,13.4,,,2521,1006.06,256.60,5.37,6.16,3.10,1.00,4.55,,5.29,2.94
2007-09-28 22:00,13.5,,,2734,1006.79,271.50,3.62,4.34,1.78,1.00,3.19,,4.12,1.76
2007-09-28 23:00,14.8,,,2964,1007.65,327.30,5.55,6.21,3.14,1.00,4.63,,6.27,3.14
2007-09-29 00:00,14.2,,,2964,1008.26,316.80,3.35,4.23,1.65,1.00,2.84,,3.92,1.37
2007-09-29 01:00,15.1,,,2964,1008.57,315.90,6.86,8.02,4.13,1.00,6.03,,7.45,3.92
2007-09-29 02:00,13.9,,,2964,1009.30,323.60,4.66,5.64,2.47,1.00,3.99,,5.68,2.35
2007-09-29 03:00,13.3,,,2964,1009.91,346.63,5.79,7.34,2.70,1.00,4.82,,6.66,2.74
2007-09-29 04:00,13.3,,,2964,1010.65,341.20,8.90,10.01,2.55,1.00,6.70,,10.00,1.96
2007-09-29 05:00,12.9,,,2965,1011.26,354.38,8.63,9.95,3.75,1.00,7.06,,11.17,4.12
2007-09-29 06:00,12.2,,,2963,1011.57,2.44,8.75,10.46,3.91,1.00,6.99,,9.60,4.12
2007-09-29 07:00,12.0,,,2963,1012.24,2.03,9.52,11.30,3.46,1.00,7.71,,10.98,3.92
2007-09-29 08:00,11.9,,,2962,1012.91,350.58,8.06,9.05,3.24,1.00,6.38,,9.41,3.72
2007-09-29 09:00,11.9,,,2965,1013.71,354.23,7.91,9.93,3.47,1.00,6.64,,9.21,4.31
2007-09-29 10:00,11.9,,,2963,1014.45,348.92,8.70,9.66,3.84,1.00,6.69,,9.21,4.12
2007-09-29 11:00,11.9,,,2960,1015.74,307.00,6.00,7.07,2.45,1.00,4.51,,6.27,2.55
2007-09-29 12:00,11.9,,,2965,1016.72,314.50,5.54,7.32,2.26,1.00,4.16,,6.27,2.16
2007-09-29 13:00,12.3,,,2712,1017.58,303.50,6.18,6.77,1.99,1.00,4.66,,6.47,2.55
2007-09-29 14:00,12.7,,,2959,1018.31,315.70,6.29,7.23,3.17,1.00,5.03,,6.66,3.14
2007-09-29 15:00,13.3,,,2944,1018.80,345.06,5.86,7.02,2.28,1.00,4.62,,6.47,2.35
2007-09-29 16:00,13.4,,,2781,1019.23,337.30,4.55,5.55,2.02,1.00,3.77,,5.29,1.76
2007-09-29 17:00,14.0,,,2918,1019.48,314.60,5.79,6.43,1.00,1.00,3.60,,6.08,1.18
2007-09-29 18:00,14.7,,,2830,1019.73,312.80,6.54,7.53,3.04,1.00,5.20,,7.25,2.74
2007-09-29 19:00,15.1,,,2956,1019.91,318.70,5.39,6.12,2.29,1.00,3.96,,5.49,2.35
2007-09-29 20:00,15.6,,,2961,1020.40,326.30,8.15,9.38,4.84,1.00,6.72,,8.82,5.10
2007-09-29 21:00,15.4,,,2965,1021.14,321.60,7.19,8.51,4.28,1.00,5.92,,8.04,4.31
2007-09-29 22:00,14.2,,,2963,1022.06,325.10,6.26,6.67,3.09,1.00,4.53,,6.27,2.94
2007-09-29 23:00,13.7,,,2965,1023.29,317.50,3.94,4.48,1.17,1.00,3.13,,3.92,1.18
2007-09-30 00:00,14.3,,,2965,1024.64,318.10,5.60,6.55,2.99,1.00,4.59,,6.27,2.74
2007-09-30 01:00,13.8,,,2965,1025.57,321.80,7.21,8.44,3.66,1.00,6.03,,7.84,3.92
2007-09-30 02:00,13.3,,,2965,1026.73,323.90,5.72,6.74,2.66,1.00,4.74,,6.66,2.74
2007-09-30 03:00,12.8,,,2965,1027.60,316.60,5.29,5.93,2.69,1.00,4.51,,5.49,2.94
2007-09-30 04:00,12.1,,,2965,1028.21,320.40,4.82,5.52,2.46,1.00,3.91,,4.70,2.35
2007-09-30 05:00,11.9,,,2965,1029.14,351.26,4.90,5.98,2.62,1.00,4.24,,5.49,2.74
2007-09-30 06:00,11.7,,,2965,1030.06,4.09,7.95,9.08,4.27,1.00,6.37,,8.82,4.51
2007-09-30 07:00,11.1,,,2964,1030.37,14.75,7.78,8.75,4.04,1.00,6.43,,8.23,4.12
2007-09-30 08:00,10.8,,,2965,1030.74,9.26,7.40,8.64,4.02,1.00,6.13,,8.04,4.12
2007-09-30 10:00,10.2,,,2964,1032.28,17.88,7.22,8.10,3.92,1.00,5.91,,7.25,4.12
2007-09-30 11:00,10.0,,,2937,1033.02,18.15,7.48,8.19,3.64,1.00,6.05,,8.04,3.72
2007-09-30 13:00,9.7,,,2822,1034.19,17.92,6.53,7.55,3.41,1.00,5.66,,7.25,3.53
2007-09-30 14:00,9.8,,,2862,1034.32,31.62,6.06,6.39,2.96,1.00,4.68,,6.08,2.94
2007-09-30 15:00,9.8,,,2965,1034.56,31.55,4.45,5.19,2.26,1.00,3.83,,4.51,2.35
2007-09-30 16:00,10.3,,,2960,1034.56,79.60,1.59,2.17,0.33,1.00,1.21,,1.18,0.00